OPS 4682 DEB, 18479

Orbit data source: Space-Track

OPS 4682 DEB, 18479 is space debris in LEO originally from a launch on Sat, 03 Apr 1965 UTC launched from the Air Force Western Test Range (AFWTR). Debris objects in space refer to the collection of defunct objects orbiting the Earth. Examples of debris include non-operational satellites, rocket bodies, and fragments generated from explosions, collisions, or faulty payload assembly.

Loading next visibility...
Identifier
18479, 1965-027AC
Orbit
LEO
Country
Flag of USUS
Related business
Manufacturer
Unknown
Mission
Spacecraft
Bus & Motor
Unknown
Mass
Unknown
Launch date (UTC)
1965-04-03 (61 years ago)
Launch vehicle
Unknown
Launch site
Air Force Western Test Range (AFWTR)
Object type
Payload
Rocket body
Debris
Shape & HBR
Unknown shape, 0.1 m
Radar Cross Section
Medium (>0.1 m² and <1 m²)

Expand to show TLE details & history
Last TLE update: 2 days ago

TLE from 2 days ago
0 OPS 4682 DEB
1 18479U 65027AC  26233.86623841  .00000283  00000-0  94841-3 0  9995
2 18479  90.2422   7.2656 0028207 246.3824 268.3123 12.97613184956270
Epoch: 2026-08-21T20:47Z
TLE epoch observation values (Epoch: 2026-08-21T20:47:22.998Z)
Latitude
25.65614°
Longitude
-94.64933°
Altitude
1,275.256 km
Speed
7.22 km/s
True Right ascension
12h 29m 31s
True Declination
25° 31' 52"
Sunlit
Object was in daylight at epoch
Visualization orbit readout
Latitude
Unknown
Longitude
Unknown
Altitude
Unknown
Speed
Unknown
Apparent Right ascension
Unknown
Apparent Declination
Unknown
Sunlit
N/A
Visualization observer readout
Local Sidereal Time
22:45:58
Azimuth
Unknown
Elevation
Unknown
Doppler factor
Unknown
Orbital elements
Apogee altitude
1,290.152 km
Perigee altitude
1,247.014 km
Semi-major axis
7,646.72 km
Eccentricity
0.00282
Inclination
90.2422°
RAAN
7.2656°
Arg. of periapsis
246.3824°
True anomaly
267.98925°
Mean anomaly
268.3123°
Eccentric anomaly
268.15077°
Mean motion
3.24586 °/min
Orbital period
110.91 mins
BSTAR
0.00094841
Loading maneuver chart data...
Computing Atmospheric mass density...
Loading historical data...
Loading historical data...
Loading historical data...
Loading historical data...
Loading historical data...
Loading historical data...
Loading historical data...

Documentation

Showing up to 5 results
|